TimePDT,TemperatureF,Dew PointF,Humidity,Sea Level PressureIn,VisibilityMPH,Wind Direction,Wind SpeedMPH,Gust SpeedMPH,PrecipitationIn,Events,Conditions,WindDirDegrees,DateUTC
12:53 AM,37.9,30.0,73,30.16,10.0,East,3.5,-,N/A,,Clear,100,2014-03-19 07:53:00
1:53 AM,37.0,30.9,79,30.15,10.0,Calm,Calm,-,N/A,,Clear,0,2014-03-19 08:53:00
2:53 AM,35.1,30.0,82,30.14,10.0,Calm,Calm,-,N/A,,Clear,0,2014-03-19 09:53:00
3:53 AM,35.1,30.0,82,30.13,10.0,Calm,Calm,-,N/A,,Clear,0,2014-03-19 10:53:00
4:53 AM,33.1,28.9,85,30.12,10.0,ESE,3.5,-,N/A,,Clear,120,2014-03-19 11:53:00
5:53 AM,32.0,28.9,88,30.12,10.0,Calm,Calm,-,N/A,,Clear,0,2014-03-19 12:53:00
6:53 AM,34.0,30.0,85,30.11,10.0,NNW,3.5,-,N/A,,Clear,340,2014-03-19 13:53:00
7:53 AM,35.1,30.0,82,30.09,10.0,Calm,Calm,-,N/A,,Clear,0,2014-03-19 14:53:00
8:53 AM,43.0,32.0,65,30.07,10.0,East,4.6,-,N/A,,Clear,100,2014-03-19 15:53:00
9:53 AM,50.0,30.0,46,30.06,10.0,SSW,4.6,-,N/A,,Clear,200,2014-03-19 16:53:00
10:53 AM,57.0,28.0,33,30.04,10.0,SSW,12.7,-,N/A,,Partly Cloudy,200,2014-03-19 17:53:00
11:53 AM,55.9,28.9,36,30.02,10.0,SSW,17.3,-,N/A,,Scattered Clouds,210,2014-03-19 18:53:00
12:53 PM,59.0,32.0,36,30.00,10.0,SW,18.4,-,N/A,,Overcast,230,2014-03-19 19:53:00
1:53 PM,63.0,36.0,37,29.97,10.0,SW,27.6,36.8,N/A,,Partly Cloudy,230,2014-03-19 20:53:00
2:53 PM,63.0,33.1,33,29.95,10.0,WSW,20.7,28.8,N/A,,Widespread Dust,240,2014-03-19 21:53:00
3:53 PM,62.1,30.0,30,29.94,5.0,SW,28.8,41.4,N/A,,Haze,220,2014-03-19 22:53:00
4:53 PM,62.1,28.9,29,29.94,10.0,WSW,33.4,42.6,N/A,,Widespread Dust,240,2014-03-19 23:53:00
5:53 PM,57.9,33.1,39,29.95,10.0,SW,26.5,40.3,N/A,,Widespread Dust,230,2014-03-20 00:53:00
6:53 PM,55.0,33.1,43,29.97,10.0,WSW,24.2,34.5,N/A,,Scattered Clouds,240,2014-03-20 01:53:00
7:53 PM,53.1,35.1,50,29.99,10.0,SW,15.0,-,N/A,,Mostly Cloudy,230,2014-03-20 02:53:00
8:53 PM,51.1,30.9,46,30.01,10.0,WSW,12.7,24.2,N/A,,Scattered Clouds,240,2014-03-20 03:53:00
9:53 PM,43.0,30.9,62,30.06,10.0,WNW,6.9,-,N/A,,Clear,300,2014-03-20 04:53:00
10:53 PM,39.0,28.9,67,30.09,10.0,NW,11.5,-,N/A,,Clear,320,2014-03-20 05:53:00
11:53 PM,39.9,27.0,60,30.13,10.0,WSW,3.5,-,N/A,,Clear,240,2014-03-20 06:53:00